Flag Weather past 2 weeks in Teseney, Eritrea

Now
82 °F

Sunny.


Feels Like: 80 °F
Forecast: 69 / 90 °F
Wind: 15 mph from North

Location: Khartoum Airport

Current Time: Nov 24, 2014 at 3:38:27 PM

Latest Report: Nov 24, 2014 at 3:00 PM


Visibility: 10 mi

Pressure: 29.95 "Hg

Humidity: 14%

Dew point: 28 °F

Location of TeseneyLocation

Historic Weather in Teseney — Graph

°F

Teseney temperature yesterday

Maximum temperature yesterday: 91 °F (at 4:00 PM)
Minimum temperature yesterday: 70 °F (at 7:00 AM)
Average temperature yesterday: 80 °F

Past Weeks' High & Low Weather Summary

 TemperatureHumidityPressure
High100 °F (Nov 10, 4:00 PM)40% (Nov 11, 9:00 AM)30.04 "Hg (Nov 11, 9:00 AM)
Low66 °F (Nov 24, 7:00 AM)8% (Nov 22, 4:00 PM)29.74 "Hg (Nov 13, 3:00 PM)
Average85 °F21%29.88 "Hg
* Reported Nov 9 2:00 PM — Nov 24 2:30 PM, Teseney, Weather by CustomWeather, © 2014

Note: Actual official high and low records may vary slightly from our data, if they occured in-between our weather recording intervals... More about our weather records

Advertising

Teseney weather history for previous 24 hours

 ConditionsComfort  
Time TempWeatherWind HumidityBarometerVisibility
2:30 PM
Nov 24
N/ASunny.14 mphN/A29.95 "Hg10 mi
2:00 PM82 °FPleasantly warm.16 mph14%29.98 "HgN/A
1:30 PMN/ASunny.20 mphN/A29.95 "Hg10 mi
1:00 PM81 °FSunny.16 mph17%29.98 "Hg10 mi
12:30 PMN/ASunny.15 mphN/A30.01 "Hg10 mi
12:00 PM77 °FSunny.17 mph24%30.01 "Hg10 mi
11:00 AM73 °FSunny.17 mph27%30.04 "Hg10 mi
10:30 AMN/ASunny.16 mphN/A30.04 "Hg10 mi
10:00 AM72 °FSunny.17 mph31%30.04 "Hg10 mi
9:30 AMN/ASunny.15 mphN/A30.04 "Hg10 mi
9:00 AM68 °FSunny.18 mph35%30.04 "Hg10 mi
8:30 AMN/ASunny.18 mphN/A30.04 "Hg10 mi
8:00 AM66 °FSunny.15 mph32%30.01 "Hg10 mi
7:30 AMN/ASunny.15 mphN/A30.01 "Hg10 mi
7:00 AM66 °FSunny.15 mph32%30.01 "Hg10 mi
6:30 AMN/AClear.14 mphN/A29.98 "Hg10 mi
6:00 AM68 °FClear.13 mph30%29.98 "Hg10 mi
5:30 AMN/AClear.13 mphN/A29.95 "Hg10 mi
5:00 AM70 °FClear.14 mph27%29.95 "Hg10 mi
4:30 AMN/AClear.15 mphN/A29.95 "Hg10 mi
3:30 AMN/AClear.15 mphN/A29.95 "Hg10 mi
3:00 AM73 °FClear.16 mph20%29.95 "Hg10 mi
2:30 AMN/AClear.16 mphN/A29.95 "Hg10 mi
2:00 AM73 °FClear.14 mph20%29.98 "Hg10 mi
1:30 AMN/AClear.13 mphN/A29.95 "Hg10 mi
1:00 AM75 °FClear.13 mph16%29.95 "Hg10 mi
12:30 AMN/AClear.16 mphN/A29.98 "Hg10 mi
11:30 PM
Nov 23
N/AClear.14 mphN/A29.98 "Hg10 mi
11:00 PM79 °FPleasantly warm.13 mph15%29.98 "HgN/A
10:30 PMN/AClear.14 mphN/A29.95 "Hg10 mi
9:00 PM81 °FClear.12 mph12%29.95 "Hg10 mi
8:30 PMN/AClear.12 mphN/A29.95 "Hg10 mi
8:00 PM82 °FClear.10 mph14%29.95 "Hg10 mi
7:30 PMN/AClear.13 mphN/A29.92 "Hg10 mi
7:00 PM84 °FClear.9 mph11%29.92 "Hg10 mi
6:30 PMN/AClear.10 mphN/A29.92 "Hg10 mi
6:00 PM88 °FSunny.13 mph11%29.89 "Hg10 mi
5:30 PMN/ASunny.12 mphN/A29.89 "Hg10 mi
5:00 PM90 °FSunny.13 mph12%29.89 "Hg10 mi
4:30 PMN/ASunny.13 mphN/A29.89 "Hg10 mi
4:00 PM91 °FSunny.13 mph11%29.92 "Hg10 mi
3:30 PMN/ASunny.13 mphN/A29.92 "Hg10 mi
3:00 PM90 °FSunny.10 mph13%29.92 "Hg10 mi
Weather by CustomWeather, © 2014

See weather overviewHow to use our weather pages